Location: Deuil
(48.9767°N, 2.3272°E)
Time: 23:47:46
(UTC+00:00)

Cosmos 2228 - Pass Details

Date: 06 June 2022
Orbit: 586 x 617 km, 82.5° (Epoch: 03 July)

Event Time Altitude Azimuth Distance (km) Brightness Sun altitude
Rises 02:30:18 0° 331° (NNW) 2,871 6.8 -9.9°
Reaches altitude 10° 02:33:56 10° 299° (WNW) 1,952 5.5 -9.5°
Maximum altitude 02:35:26 12° 279° (W) 1,838 5.2 -9.4°
Drops below altitude 10° 02:36:55 10° 258° (WSW) 1,939 5.2 -9.2°
Enters shadow 02:37:41 - 249° (WSW) 2,067 5.2 -9.2°
